CAPE
63 23 10 76 45 14 101 50 4 0 0 0 0 0 0 0 0 2 8 8 9 6 13 13 8 14 9 12 4 3 7 5 4 3 1 0 0 0 0 0 0 0 0
86 39 25 70 13 6 2 0 0 2 0 0 0 0 0 0 0 5 3 10 5 9 22 13 13 8 7 3 4 5 5 4 2 1 1 0 0 0 0 0 0 0 0
55 10 41 37 7 0 0 0 0 0 0 0 0 0 0 0 0 3 6 11 5 7 9 10 7 9 11 8 9 9 4 3 1 1 0 0 0 0 0 0 0 0 0
69 27 33 23 2 0 0 0 0 0 0 0 0 0 0 0 0 0 2 6 10 11 7 5 5 6 8 4 6 8 4 3 1 0 0 0 0 0 0 0 0 0 0
51 53 19 3 1 0 0 0 0 0 0 0 0 0 0 0 0 0 1 6 14 13 12 7 2 2 8 6 7 5 6 2 1 0 0 0 0 0 0 0 0 0 0
40 34 8 1 2 0 0 0 0 0 0 0 0 0 0 0 0 0 1 3 8 10 11 14 12 9 3 4 7 5 6 3 2 1 1 0 0 0 0 0 0 0 0
62 2 2 0 1 0 0 0 0 0 0 0 0 2 0 2 0 0 0 1 2 1 4 7 10 10 4 0 1 5 6 7 6 2 2 2 0 0 0 0 0 0 0
7 2 1 1 0 4 0 0 0 0 0 0 0 1 5 3 2 0 0 0 0 0 0 0 0 1 1 2 0 0 1 5 5 4 3 3 1 0 0 0 0 0 0
1 1 2 0 0 0 0 0 0 0 0 0 0 3 2 10 0 1 0 0 0 0 1 0 0 0 0 0 0 0 0 0 0 8 8 2 0 0 0 0 0 0 0
1 0 0 0 0 0 0 0 0 0 0 0 0 0 10 5 25 0 0 0 0 0 1 2 6 4 1 4 2 0 0 0 0 0 8 72 49 2 0 0 0 0 0
1 2 1 0 0 0 0 0 0 0 0 2 0 0 0 0 7 8 1 0 0 0 18 29 28 13 27 6 0 3 1 0 0 0 0 0 0 72 121 13 0 0 0
2 1 1 0 0 0 0 0 0 0 0 0 2 16 6 5 0 0 0 1 18 0 6 3 14 34 15 2 6 19 13 0 0 0 0 0 0 0 0 50 128 74 21
1 2 1 2 0 0 0 0 0 0 0 0 6 16 20 37 30 18 2 1 0 0 0 0 9 13 7 8 35 31 9 0 0 0 0 0 0 0 0 0 8 57 128
0 0 2 1 1 0 0 0 0 0 0 0 15 31 43 40 48 51 28 31 5 0 0 0 2 12 14 37 49 16 0 0 0 0 0 0 0 0 0 0 1 14 38
8 1 1 1 2 0 1 0 0 0 0 2 8 26 15 16 24 19 19 24 1 0 0 3 12 7 6 15 6 5 0 0 0 0 0 0 0 0 0 0 0 0 2
16 6 8 1 0 1 0 1 0 0 0 2 6 4 0 1 12 11 3 3 5 3 1 0 0 1 4 0 0 0 0 0 0 0 0 0 0 0 0 0 0 0 0
1 0 1 2 1 2 1 0 1 1 2 0 0 2 0 0 13 10 7 0 0 0 5 0 0 0 0 0 0 0 0 0 0 0 0 0 0 0 0 0 0 0 0
0 0 0 1 3 2 4 3 3 1 0 1 0 0 0 3 0 5 0 0 1 7 16 6 0 0 8 0 9 26 0 0 0 0 0 0 0 0 0 0 0 0 0
0 0 0 0 0 0 1 0 1 3 3 2 3 1 2 0 0 0 0 1 3 7 24 19 0 10 17 30 12 0 0 1 2 0 0 0 0 0 0 0 0 0 0
1 0 1 1 0 0 0 0 0 0 2 3 0 1 5 6 4 7 14 12 7 8 17 31 24 5 14 6 20 1 1 1 0 0 0 0 0 0 0 0 0 0 0
0 0 0 0 0 0 0 1 0 0 0 0 1 1 1 0 0 0 2 1 5 15 20 29 25 18 3 2 4 3 9 0 0 2 0 1 2 0 1 0 0 0 0
0 0 1 0 0 0 1 0 0 1 0 0 0 1 1 0 0 0 0 0 0 12 14 13 12 16 10 5 2 3 1 4 6 5 1 0 0 0 7 5 4 1 1
2 5 4 3 4 9 2 0 0 0 0 0 1 1 1 2 0 0 0 0 0 0 0 0 1 2 2 0 2 0 1 0 0 0 0 1 4 9 4 3 4 5 5
6 6 6 2 5 5 0 0 0 0 0 2 2 1 0 0 0 0 0 0 0 0 0 0 1 0 1 2 1 2 1 0 2 9 3 0 4 6 1 3 4 4 4
5 6 5 5 7 6 1 0 0 0 0 1 3 7 7 3 2 1 1 0 0 1 6 14 9 7 8 5 1 3 3 3 0 0 0 1 1 1 0 0 1 2 2
4 2 4 3 4 4 3 2 0 4 1 7 6 5 4 4 2 0 1 1 0 6 4 2 0 0 2 3 2 3 2 1 0 0 0 1 1 1 0 0 1 1 1
CIN
-18 -57 -67 -2 -6 -49 -5 -3 -44 -0 -0 -0 -0 -0 -0 -0 -0 -1 -1 -2 -1 -1 -0 -0 -0 -1 -1 -3 -1 -0 -0 -0 -0 -0 -0 -0 -0 -0 -0 -0 -0 -0 -0
-3 -58 -21 -3 -12 -75 -11 -5 -0 -96 -0 -0 -0 -0 -0 -0 -0 -0 -1 -0 -3 -3 -2 -2 -2 -1 -1 -2 -0 -0 -0 -0 -0 -0 -0 -0 -0 -0 -0 -0 -0 -0 -0
-1 -19 -9 -8 -11 -0 -0 -0 -0 -0 -0 -0 -0 -0 -0 -0 -0 -0 -1 -0 -2 -4 -3 -2 -1 -1 -0 -0 -0 -0 -0 -0 -0 -0 -0 -0 -0 -0 -0 -0 -0 -0 -0
-0 -7 -15 -31 -26 -0 -0 -0 -0 -0 -0 -0 -0 -0 -0 -0 -0 -0 -0 -0 -1 -1 -2 -4 -2 -1 -0 -1 -0 -1 -0 -0 -0 -0 -0 -0 -0 -0 -0 -0 -0 -0 -0
-0 -0 -31 -61 -0 -0 -0 -0 -0 -0 -0 -0 -0 -0 -0 -0 -0 -0 -0 -0 -0 -1 -1 -3 -4 -3 -2 -1 -0 -0 -1 -1 -0 -0 -0 -0 -0 -0 -0 -0 -0 -0 -0
-1 -0 -28 -12 -0 -0 -0 -0 -0 -0 -52 -0 -0 -0 -0 -0 -0 -0 -0 -0 -1 -0 -0 -0 -0 -1 -3 -2 -0 -1 -0 -0 -0 -0 -0 -0 -0 -0 -0 -0 -0 -0 -0
-0 -9 -0 -0 -0 -0 -0 -0 -0 -0 -0 -0 -0 -0 -0 -0 -0 -0 -0 -0 -0 -0 -0 -0 -1 -0 -1 -0 -2 -0 -0 -0 -0 -0 -0 -0 -0 -0 -0 -0 -0 -0 -0
-33 -0 -0 -0 -0 -54 -0 -0 -0 -0 -0 -0 -0 -0 -0 -0 -0 -0 -0 -0 -0 -0 -0 -0 -0 -0 -0 -1 -0 -0 -0 -0 -0 -0 -0 -2 -1 -0 -0 -0 -0 -0 -0
-0 -0 -0 -0 -0 -0 -0 -0 -0 -0 -0 -0 -0 -8 -0 -0 -0 -0 -0 -0 -0 -0 -88 -0 -0 -0 -0 -0 -0 -0 -0 -0 -0 -25 -80 -5 -3 -0 -0 -0 -0 -0 -0
-0 -0 -0 -0 -0 -0 -0 -0 -0 -0 -0 -0 -0 -0 -20 -18 -28 -22 -0 -0 -0 -0 -93 -125 -155 -190 -130 -233 -210 -0 -0 -0 -0 -0 -80 -6 -24 -74 -0 -0 -0 -0 -0
-0 -0 -0 -0 -0 -0 -0 -0 -0 -0 -0 -66 -0 -0 -0 -0 -54 -32 -24 -0 -0 -0 -118 -133 -155 -189 -208 -215 -0 -278 -114 -0 -0 -0 -0 -0 -0 -2 -3 -60 -3 -0 -0
-6 -0 -0 -0 -0 -0 -0 -0 -0 -0 -0 -0 -48 -35 -24 -8 -0 -0 -0 -53 -47 -0 -136 -83 -141 -167 -199 -221 -254 -275 -288 -0 -0 -0 -0 -0 -0 -0 -0 -38 -3 -22 -44
-2 -8 -0 -0 -0 -0 -0 -0 -0 -0 -0 -0 -52 -37 -47 -34 -27 -25 -24 -22 -0 -0 -25 -5 -122 -162 -205 -226 -213 -230 -259 -0 -0 -0 -0 -0 -0 -0 -0 -17 -109 -55 -17
-3 -0 -0 -0 -0 -0 -0 -0 -0 -0 -0 -0 -52 -46 -45 -50 -47 -26 -29 -19 -24 -0 -0 -0 -109 -158 -201 -152 -130 -155 -22 -0 -0 -0 -0 -0 -0 -0 -0 -0 -81 -134 -96
-0 -1 -0 -0 -0 -0 -0 -0 -0 -0 -0 -40 -61 -52 -68 -59 -86 -76 -60 -28 -10 -0 -0 -14 -33 -80 -118 -147 -139 -135 -0 -0 -0 -0 -0 -0 -0 -0 -0 -0 -0 -0 -172
-0 -1 -0 -0 -0 -0 -0 -0 -0 -0 -0 -41 -46 -45 -0 -40 -74 -94 -88 -79 -75 -16 -2 -0 -0 -16 -107 -0 -0 -0 -0 -0 -0 -0 -0 -0 -0 -0 -0 -0 -0 -0 -0
-4 -1 -0 -0 -0 -0 -0 -0 -0 -0 -10 -0 -0 -40 -8 -44 -43 -70 -84 -0 -28 -0 -19 -0 -0 -0 -0 -0 -0 -0 -0 -0 -0 -0 -0 -0 -0 -0 -0 -0 -0 -0 -0
-0 -0 -0 -3 -0 -0 -0 -0 -0 -0 -0 -11 -0 -0 -0 -49 -2 -31 -3 -0 -45 -34 -38 -22 -0 -0 -20 -0 -87 -75 -127 -0 -0 -0 -0 -0 -0 -0 -0 -0 -0 -0 -0
-0 -0 -0 -0 -0 -0 -0 -0 -0 -4 -0 -19 -32 -7 -49 -44 -0 -0 -0 -38 -46 -65 -51 -36 -0 -37 -21 -12 -22 -0 -0 -107 -116 -0 -0 -0 -0 -0 -0 -0 -0 -0 -0
-0 -0 -0 -0 -0 -0 -0 -0 -0 -0 -15 -10 -33 -39 -55 -40 -33 -21 -26 -35 -53 -48 -31 -18 -21 -32 -13 -8 -6 -1 -0 -1 -0 -0 -0 -0 -0 -0 -0 -0 -0 -0 -0
-0 -0 -0 -0 -0 -14 -8 -21 -0 -8 -4 -9 -1 -1 -0 -0 -0 -2 -26 -8 -24 -6 -3 -0 -0 -0 -0 -0 -0 -1 -1 -0 -0 -0 -0 -0 -0 -0 -0 -0 -0 -0 -0
-0 -0 -0 -0 -0 -0 -0 -0 -0 -0 -0 -0 -0 -0 -0 -0 -0 -0 -0 -0 -0 -1 -1 -0 -0 -0 -1 -0 -15 -1 -1 -0 -0 -2 -2 -0 -0 -0 -0 -0 -0 -0 -0
-0 -0 -0 -0 -0 -0 -0 -0 -0 -0 -0 -0 -0 -0 -0 -0 -0 -0 -0 -0 -0 -0 -0 -0 -0 -1 -1 -2 -1 -3 -1 -3 -0 -0 -0 -0 -0 -0 -0 -0 -0 -0 -0
-0 -0 -0 -0 -0 -0 -0 -0 -0 -0 -0 -0 -0 -0 -0 -0 -0 -0 -0 -0 -0 -0 -0 -0 -0 -0 -0 -0 -0 -0 -0 -0 -0 -0 -0 -0 -0 -0 -0 -0 -0 -0 -0
-0 -0 -0 -0 -0 -0 -0 -0 -0 -0 -0 -0 -0 -0 -0 -0 -0 -0 -0 -0 -0 -0 -0 -0 -0 -0 -0 -0 -0 -0 -0 -0 -0 -0 -0 -0 -0 -0 -0 -0 -0 -0 -0
-0 -0 -0 -0 -0 -0 -0 -0 -0 -0 -0 -0 -0 -0 -0 -0 -0 -0 -0 -0 -0 -0 -0 -0 -0 -0 -0 -0 -0 -0 -0 -0 -0 -0 -0 -0 -0 -0 -0 -0 -0 -0 -0
Wind_Speed
8 11 15 13 12 18 11 12 8 7 9 9 7 7 5 5 5 1 0 1 1 2 3 3 3 3 4 5 6 5 5 6 6 6 6 6 6 7 8 8 8 9 9
11 12 8 13 19 22 16 10 9 9 9 8 7 7 6 6 2 2 7 2 2 1 1 1 2 2 2 2 4 4 4 5 5 5 5 6 6 7 7 8 8 8 8
11 13 12 12 16 21 16 11 9 8 9 8 8 6 6 4 9 9 8 6 4 3 3 1 0 1 1 2 2 3 3 3 4 5 5 6 6 7 7 7 7 8 8
13 12 15 15 18 19 17 13 11 8 8 8 9 9 10 10 11 9 12 10 7 6 7 5 3 1 1 1 1 2 3 3 4 4 5 6 6 6 6 7 7 7 7
11 11 14 17 18 19 18 15 10 11 12 11 12 14 13 12 10 7 14 12 10 9 8 8 7 6 5 3 3 4 4 4 5 5 5 5 5 5 6 7 7 8 7
14 12 14 17 18 20 19 14 11 15 14 12 12 15 14 14 12 15 14 14 12 11 11 10 8 9 10 8 7 6 6 6 6 6 6 6 5 5 6 8 8 8 8
17 17 18 15 17 20 16 15 12 14 13 10 11 14 14 18 15 15 16 17 16 14 13 12 11 11 11 12 12 10 10 8 8 8 8 8 8 7 9 10 10 10 9
17 18 17 17 21 19 14 15 13 12 12 10 14 11 16 20 20 16 15 15 17 16 16 16 14 14 15 16 16 13 14 13 12 10 9 9 10 9 11 12 13 12 12
14 16 12 18 18 14 15 17 15 13 11 11 11 14 17 22 16 16 15 17 18 17 16 19 18 18 19 19 20 18 16 16 16 16 14 13 12 11 12 13 14 13 13
4 12 18 17 19 19 16 18 15 13 13 12 11 18 16 15 18 19 18 20 16 20 19 18 22 22 20 20 20 21 20 18 16 13 17 17 14 14 14 15 15 16 16
6 6 13 15 16 16 15 14 15 14 12 12 13 14 15 15 15 18 20 19 22 23 22 22 18 16 19 17 19 25 22 16 15 16 16 16 18 18 16 16 17 18 18
3 7 7 12 16 16 15 15 14 16 14 12 13 16 17 16 16 17 19 18 19 23 25 20 23 22 22 20 19 19 17 17 17 19 19 19 19 19 20 19 19 20 20
2 7 10 10 13 15 17 17 14 14 16 17 16 16 17 18 15 18 19 21 23 26 24 25 22 22 20 16 19 19 19 17 19 20 22 22 21 21 22 22 23 23 23
7 6 7 9 10 13 14 15 15 14 15 18 16 15 23 23 24 23 19 21 25 23 18 22 24 19 17 20 21 20 23 16 17 19 21 22 22 22 22 23 23 24 26
8 12 11 6 8 10 13 14 17 15 15 16 19 19 21 23 22 26 29 21 21 24 29 18 20 17 21 22 19 21 21 21 17 18 19 20 22 23 24 25 26 28 29
9 12 16 11 8 9 9 11 15 16 15 16 17 19 20 21 21 27 31 34 33 32 24 14 18 24 23 22 23 22 24 23 24 22 23 24 25 26 27 29 30 31 31
10 8 10 10 11 11 9 6 8 12 15 17 18 21 22 22 27 28 28 29 33 27 34 46 31 31 29 26 25 26 26 26 28 28 27 28 28 29 30 33 33 33 33
11 10 7 5 6 7 8 7 6 6 10 14 15 17 19 18 20 20 20 25 26 24 27 30 35 34 30 29 31 32 32 32 33 31 30 31 32 33 34 35 35 36 36
5 6 6 7 6 6 6 5 6 7 8 10 12 14 15 17 17 19 20 20 22 27 30 32 48 43 39 36 35 36 35 36 35 34 36 35 35 37 36 36 36 36 35
6 3 1 0 1 2 4 6 8 9 10 11 12 14 15 17 18 18 20 21 24 27 29 30 32 42 43 43 41 42 43 39 40 39 38 37 40 40 36 36 37 36 36
9 9 9 8 8 9 12 10 11 13 15 16 16 17 18 20 21 22 22 23 25 28 31 32 34 34 40 41 40 43 47 48 47 42 43 42 41 40 40 41 40 39 37
18 18 18 16 15 19 26 28 25 17 18 19 20 22 23 24 25 26 28 29 30 32 34 35 37 38 38 39 41 43 45 43 44 40 44 44 40 40 40 42 44 42 40
20 20 21 22 21 24 30 30 31 28 27 28 27 29 30 30 29 31 30 31 33 35 38 38 40 40 41 40 41 40 41 43 47 46 41 42 37 37 35 35 34 32 31
20 20 22 23 23 27 32 33 34 31 31 32 35 38 41 40 37 37 35 36 36 36 39 38 41 44 45 45 44 44 46 46 43 41 40 43 35 34 31 30 30 29 28
20 20 21 22 23 27 33 35 35 30 30 30 28 32 37 40 43 43 43 44 43 37 34 34 35 36 39 43 46 47 50 49 47 40 36 35 31 30 31 31 31 30 29
19 19 21 22 25 27 32 33 32 28 25 25 27 30 35 35 37 39 39 41 41 36 35 36 36 35 35 37 39 40 43 44 44 43 39 40 35 33 38 30 30 30 30
Wind_Direction
228 231 241 238 217 222 194 162 185 191 221 226 234 247 260 268 264 295 100 218 153 103 101 100 88 81 81 81 80 69 64 61 61 50 36 20 10 8 9 11 15 18 21
231 229 216 228 228 224 219 190 188 215 219 225 229 247 255 265 267 254 256 239 243 149 134 134 100 88 85 73 70 62 52 56 47 36 19 11 10 6 10 11 11 12 12
209 214 223 238 225 220 213 203 202 214 227 226 236 242 260 272 261 254 258 262 262 257 262 234 126 89 78 59 51 40 42 30 15 11 14 8 11 6 2 6 7 5 5
217 219 232 230 222 220 217 212 208 209 216 226 239 250 257 261 261 255 254 261 267 269 267 268 270 263 279 314 344 12 351 356 357 6 2 357 1 4 0 0 356 0 8
201 213 224 227 218 221 214 211 202 217 226 235 244 248 255 260 263 265 256 261 266 271 274 269 272 275 279 281 294 304 315 323 324 336 335 342 350 357 355 346 346 346 358
196 218 219 224 228 216 216 207 204 229 231 234 245 250 259 264 266 262 265 264 268 272 275 278 276 278 277 282 287 293 299 305 309 314 315 320 328 335 332 324 328 330 336
198 220 228 216 216 214 209 203 206 223 232 229 243 256 263 263 269 272 269 266 267 271 275 275 276 280 281 278 283 287 291 295 297 300 302 302 305 310 310 310 314 315 317
231 218 220 217 216 219 196 192 197 209 237 216 251 245 260 263 268 273 274 273 269 271 272 272 275 276 278 280 281 281 287 289 290 291 291 292 294 297 299 299 301 302 304
227 215 214 210 214 212 206 202 203 196 230 225 243 263 264 266 271 279 276 273 272 274 275 272 274 275 276 279 282 282 281 284 286 288 287 283 281 281 285 289 293 292 296
255 209 226 221 225 229 222 219 216 214 236 222 243 268 268 277 273 278 279 272 276 273 276 278 275 275 276 278 279 281 283 278 276 271 283 284 278 275 274 278 280 284 288
125 190 227 228 225 229 227 213 218 227 230 226 243 257 265 275 281 285 282 276 275 275 276 275 276 274 276 274 278 280 279 267 253 253 250 261 276 279 273 266 270 277 278
255 195 208 225 235 236 227 223 218 228 233 233 237 251 261 267 276 282 286 282 275 281 277 278 279 280 279 276 274 275 271 262 244 238 242 247 247 248 249 260 265 264 266
196 206 203 227 224 238 239 241 228 229 237 243 237 244 259 263 276 280 283 285 285 286 287 287 279 284 284 274 276 277 277 244 238 240 236 238 244 247 246 251 255 259 265
153 177 205 212 237 227 229 242 243 238 241 253 247 247 265 269 272 274 276 282 289 292 299 288 282 281 281 284 283 283 287 267 247 242 240 245 248 252 257 261 265 269 273
118 151 168 196 196 202 236 245 252 241 241 249 256 260 267 272 273 274 275 281 283 290 294 292 287 283 283 285 280 286 286 283 265 259 260 261 263 264 267 269 272 274 278
103 129 154 168 227 226 235 253 253 257 249 252 257 260 268 270 275 276 276 278 282 285 285 267 283 289 290 288 285 284 285 281 283 274 274 276 276 274 273 276 280 280 279
107 110 130 144 157 179 192 218 238 252 242 244 255 265 264 272 279 278 278 279 281 282 282 248 285 289 289 287 286 285 284 281 281 278 275 274 273 274 277 281 283 283 282
113 121 118 118 139 160 175 188 202 222 223 229 232 239 236 259 249 252 258 256 269 267 280 240 284 288 285 286 286 285 286 284 283 280 273 275 277 278 281 279 280 282 282
70 96 115 134 144 157 176 197 216 229 247 246 254 255 256 259 261 270 270 267 269 278 281 281 280 286 288 289 289 288 286 287 286 283 283 281 281 282 280 280 280 284 283
339 0 39 287 248 223 245 270 274 273 266 255 255 256 257 253 255 264 266 263 271 276 280 279 281 287 287 287 288 289 289 289 290 291 290 287 289 290 284 283 285 286 285
324 323 317 308 298 294 295 280 272 272 274 273 270 263 259 255 253 256 269 267 273 276 280 281 281 283 287 289 287 289 288 290 289 291 292 293 294 294 294 292 290 288 287
319 314 311 309 304 305 303 298 295 284 282 281 282 281 277 272 266 266 263 260 270 278 279 282 283 283 284 286 288 288 289 289 289 292 292 293 293 293 296 297 295 293 292
318 319 318 315 313 309 306 306 303 300 295 295 292 291 289 287 284 283 279 270 267 266 266 272 275 278 283 284 286 284 284 285 287 293 291 291 298 296 301 305 307 305 303
325 325 322 319 316 314 311 308 305 304 302 299 295 294 293 293 291 290 287 285 285 285 286 283 281 286 290 292 289 289 291 291 292 295 294 287 295 295 302 309 315 313 310
333 332 331 330 326 322 319 314 311 310 308 307 310 311 305 300 297 294 292 290 289 293 298 298 297 297 299 300 297 291 289 290 290 296 305 295 294 296 299 305 309 314 316
338 338 336 334 332 329 328 326 323 321 320 318 320 318 319 314 310 305 298 295 294 294 294 298 301 305 307 306 309 305 298 293 292 294 299 296 290 294 293 303 308 312 314